Flag for Australia Weather past 2 weeks in Adelaide, South Australia, Australia

Now
48 °F

Clear.


Feels Like: 48 °F
Forecast: 46 / 60 °F
Wind: No wind

Location: Adelaide Airport

Current Time: Jul 3, 2015 at 10:24:25 PM

Latest Report: Jul 3, 2015 at 9:30 PM


Visibility: 10 mi

Pressure: 30.30 "Hg

Humidity: 82%

Dew point: 43 °F

Location of AdelaideLocation

Historic Weather in Adelaide — Graph

°F

Adelaide temperature yesterday

Maximum temperature yesterday: 59 °F (at 12:30 PM)
Minimum temperature yesterday: 43 °F (at 11:00 PM)
Average temperature yesterday: 52 °F

Past Weeks' High & Low Weather Summary

 TemperatureHumidityPressure
High64 °F (Jun 22, 2:00 PM)100% (Jun 20, 1:30 AM)30.57 "Hg (Jun 20, 1:30 AM)
Low37 °F (Jun 27, 6:00 AM)32% (Jun 22, 2:00 PM)29.89 "Hg (Jun 22, 4:00 PM)
Average51 °F73%30.33 "Hg
* Reported Jun 18 9:30 PM — Jul 3 9:30 PM, Adelaide, Weather by CustomWeather, © 2015

Note: Actual official high and low records may vary slightly from our data, if they occured in-between our weather recording intervals... More about our weather records

Advertising

Adelaide weather history for previous 24 hours

 ConditionsComfort  
Time TempWeatherWind HumidityBarometerVisibility
9:30 PM
Fri, Jul 3
48 °FClear.No wind82%30.30 "Hg10 mi
8:30 PM50 °FClear.1 mph76%30.30 "Hg10 mi
8:00 PM50 °FClear.5 mph76%30.27 "Hg10 mi
7:30 PM50 °FClear.5 mph76%30.30 "Hg10 mi
7:00 PM50 °FPassing clouds.1 mph82%30.30 "HgN/A
6:30 PM50 °FPartly cloudy.No wind82%30.30 "HgN/A
6:00 PM50 °FPassing clouds.1 mph76%30.30 "HgN/A
5:30 PM52 °FPartly cloudy.1 mph72%30.30 "HgN/A
5:00 PM54 °FPassing clouds.1 mph67%30.30 "HgN/A
4:30 PM54 °FBroken clouds.7 mph67%30.30 "HgN/A
4:00 PM54 °FPartly sunny.7 mph67%30.30 "HgN/A
3:00 PM54 °FBroken clouds.9 mph67%30.30 "HgN/A
2:30 PM54 °FPartly sunny.6 mph67%30.30 "HgN/A
2:00 PM54 °FBroken clouds.6 mph63%30.30 "HgN/A
1:30 PM54 °FPartly sunny.5 mph67%30.30 "HgN/A
1:00 PM54 °FPartly sunny.6 mph67%30.33 "HgN/A
12:30 PM52 °FPartly sunny.10 mph67%30.36 "HgN/A
12:00 PM54 °FPartly sunny.5 mph58%30.36 "HgN/A
11:30 AM52 °FBroken clouds.6 mph67%30.36 "HgN/A
11:00 AM54 °FBroken clouds.6 mph58%30.39 "HgN/A
10:30 AM52 °FBroken clouds.5 mph62%30.39 "HgN/A
10:00 AM50 °FPartly sunny.6 mph67%30.39 "HgN/A
9:30 AM50 °FPartly sunny.6 mph67%30.39 "HgN/A
9:00 AM48 °FPartly sunny.6 mph71%30.39 "HgN/A
8:30 AM45 °FPartly sunny.7 mph81%30.39 "HgN/A
8:00 AM41 °FPartly sunny.No wind87%30.39 "HgN/A
7:30 AM39 °FBroken clouds.No wind87%30.39 "HgN/A
7:00 AM37 °FFog.3 mph93%30.39 "HgN/A
6:30 AM39 °FPassing clouds.3 mph87%30.36 "HgN/A
6:00 AM37 °FPassing clouds.2 mph87%30.36 "HgN/A
5:30 AM37 °FPassing clouds.5 mph87%30.36 "HgN/A
5:00 AM37 °FPassing clouds.No wind93%30.36 "HgN/A
4:30 AM39 °FPassing clouds.No wind87%30.36 "HgN/A
4:00 AM39 °FPassing clouds.5 mph87%30.39 "HgN/A
3:30 AM39 °FPassing clouds.5 mph87%30.39 "HgN/A
3:00 AM39 °FPassing clouds.5 mph87%30.39 "HgN/A
2:30 AM39 °FClear.No wind93%30.39 "Hg10 mi
2:00 AM39 °FClear.5 mph87%30.39 "Hg10 mi
1:30 AM39 °FClear.No wind87%30.39 "Hg10 mi
1:00 AM41 °FClear.No wind87%30.39 "Hg10 mi
12:30 AM41 °FClear.No wind87%30.39 "Hg10 mi
12:00 AM41 °FClear.No wind87%30.42 "Hg10 mi
11:30 PM
Thu, Jul 2
43 °FClear.No wind81%30.42 "Hg10 mi
11:00 PM43 °FClear.1 mph87%30.42 "Hg10 mi
10:30 PM46 °FClear.5 mph76%30.42 "Hg10 mi
10:00 PM45 °FClear.5 mph76%30.42 "Hg10 mi
Weather by CustomWeather, © 2015

See weather overviewHow to use our weather pages